Location: ????????
(41.2031°N, 22.5756°E)
Time: 15:06:10
(UTC+00:00)

Cosmos 44 - Pass Details

Date: 01 December 2020
Orbit: 574 x 788 km, 65.1° (Epoch: 21 January)

Event Time Altitude Azimuth Distance (km) Brightness Sun altitude
Rises 16:02:49 0° 323° (NW) 3,224 7.0 -11.4°
Reaches altitude 10° 16:05:14 10° 319° (NW) 2,316 6.3 -11.8°
Maximum altitude 16:10:27 55° 243° (WSW) 939 4.4 -12.7°
Drops below altitude 10° 16:15:43 10° 167° (SSE) 2,339 6.1 -13.7°
Sets 16:18:10 0° 163° (SSE) 3,259 6.8 -14.1°
